This is the latest recevied weather packets stored in our database for station/object W1RCY. If no packets are shown the sender has not sent any weather packets the latest 10 day(s).
| Time | Temp. | Humidity | Pressure | Rain* | Wind** | Luminosity | Snow |
|---|---|---|---|---|---|---|---|
| 1777910875 | 18.33° C | 40% | 1004.6 hPa | 0 mm | - | 248 W/m² | - |
| 1777910571 | 18.33° C | 41% | 1005.2 hPa | 0 mm | - | 890 W/m² | - |
| 1777910269 | 17.78° C | 41% | 1004.8 hPa | 0 mm | - | 752 W/m² | - |
| 1777909965 | 18.33° C | 42% | 1005.1 hPa | 0 mm | - | 737 W/m² | - |
| 1777909662 | 17.22° C | 43% | 1005 hPa | 0 mm | - | 725 W/m² | - |
| 1777909360 | 17.22° C | 43% | 1005.4 hPa | 0 mm | - | 717 W/m² | - |
| 1777909057 | 16.67° C | 44% | 1005.4 hPa | 0 mm | - | 707 W/m² | - |
| 1777908755 | 17.22° C | 44% | 1005.3 hPa | 0 mm | - | 225 W/m² | - |
| 1777908452 | 16.11° C | 45% | 1005.3 hPa | 0 mm | - | 423 W/m² | - |
| 1777908148 | 16.67° C | 45% | 1005.3 hPa | 0 mm | - | 348 W/m² | - |
| 1777907844 | 16.67° C | 45% | 1005.3 hPa | 0 mm | - | 804 W/m² | - |
| 1777907540 | 16.67° C | 45% | 1005.5 hPa | 0 mm | - | 555 W/m² | - |
| 1777907237 | 16.67° C | 47% | 1005.4 hPa | 0 mm | - | 637 W/m² | - |
| 1777906933 | 16.11° C | 47% | 1005.4 hPa | 0 mm | - | 435 W/m² | - |
| 1777906631 | 16.11° C | 47% | 1005.4 hPa | 0 mm | - | 471 W/m² | - |
| 1777906326 | 16.11° C | 48% | 1005.4 hPa | 0 mm | - | 386 W/m² | - |
| 1777906024 | 16.11° C | 47% | 1005.5 hPa | 0 mm | - | 304 W/m² | - |
| 1777905720 | 15.56° C | 50% | 1005.4 hPa | 0 mm | - | 495 W/m² | - |
| 1777905417 | 15.56° C | 49% | 1005.5 hPa | 0 mm | - | 375 W/m² | - |
| 1777905115 | 15.56° C | 49% | 1005.6 hPa | 0 mm | - | 439 W/m² | - |
| 1777904811 | 15.56° C | 48% | 1005.6 hPa | 0 mm | - | 352 W/m² | - |
| 1777904508 | 15° C | 49% | 1005.9 hPa | 0 mm | - | 301 W/m² | - |
| 1777904205 | 15° C | 51% | 1006 hPa | 0 mm | - | 575 W/m² | - |
| 1777903903 | 15° C | 50% | 1006.3 hPa | 0 mm | - | 334 W/m² | - |
| 1777903599 | 15° C | 52% | 1006 hPa | 0 mm | - | 229 W/m² | - |
* Rain latest hour (hover to see other rain measurements)
** Current wind speed in m/s (hover to see current wind gust speed)